sat.trackr.live / text

‹ back to catalog

IRIDIUM 121

NORAD 42812 · 2017-039K

PAYLOAD ACTIVE UNKNOWN

§ Identity

Operator
Country
US
Launch date
2017-06-25
Launch site
AFWTR
Launch vehicle
Mass (kg)
RCS (m²)

Purposes: comms

External: N2YO · Heavens-Above · Gunter

§ Orbital elements

Epoch: 2026-09-19T21:55:11.025120Z

Period
100.40 min
Inclination
86.3974°
Eccentricity
0.0002166
Mean motion
14.34217832 rev/d
Perigee alt
776.1 km
Apogee alt
779.2 km
Semi-major
7,155.8 km
B*
4.2119e-5
RAAN
314.0981°
Arg perigee
94.6833°
Mean anomaly
265.4610°
Rev number
48,340

§ Raw data

IRIDIUM 1211 42812U 17039K   26262.91332205  .00000138  00000+0  42119-4 0  99922 42812  86.3974 314.0981 0002166  94.6833 265.4610 14.34217832483408

JSON: /api/v1/satellites/42812 · /tle

For live sub-satellite position, see the globe view (requires WebGL).

§ Visibility from observer

Set your observer location to see the next 7 days of passes ≥ 10°. The values pass through the URL so the page stays shareable.

No JS? Fill the form by hand. The geolocation button needs JavaScript.